Погода в Башкатове

Россия / Курская область     51°15′46″N   35°58′38″E
темп.,
°C
ветер,
м/с
пор.,
м/с
влажн.,
%
обл.,
%
осадки,
мм/ч
давл.,
гПа
погр.,
м
13 августа, сб
сб1300:00+22всв495881 0.0 1018193
03:00+23в5105995 0.0 1018239
06:00+22в4858100 0.0 1018168
09:00+23св71257100 0.0 1017283
12:00+25всв71156100 0.0 1017451
15:00+30всв563682 0.0 10161786
18:00+27всв594681 0.0 1016826
21:00+25в6144679 0.0 1015447
14 августа, вс
вс1400:00+26вюв61438100 0.0 1015599
03:00+24в61247100 0.0 1015562
06:00+22в5135898 0.1 1015419
09:00+23всв6115378 0.2 1015507
12:00+26вюв61148100 0.0 1015861
15:00+29в893847 0.0 10151563
18:00+27всв684583 0.0 10141020
21:00+23всв51262100 0.0 1014288
15 августа, пн
пн1500:00+22всв6155726 0.0 1014428
03:00+21всв615605 0.0 1014378
06:00+20всв6145863 0.0 1014312
09:00+26в7133844 0.0 1013599
12:00+31в8102683 0.0 10131396
15:00+31вюв9112984 0.0 10131338
18:00+31всв71132100 0.0 1012784
21:00+28в71634100 0.0 1012619
16 августа, вт
вт1600:00+27в71636100 0.0 1013654
03:00+26в8143398 0.0 1014908
06:00+23в71336100 0.1 1014602
09:00+23в71333100 0.1 1015433
12:00+24в61335100 0.0 1015591
15:00+27в81233100 0.0 1014878
18:00+27в61233100 0.0 1014683
21:00+26св71333100 0.0 1013522
17 августа, ср
ср1700:00+26всв8173455 0.0 1012758
03:00+26в101731100 0.0 1012953
06:00+24вюв91840100 0.1 1012705
09:00+24вюв71448100 0.4 1013808
12:00+30в8102855 0.0 10121569
15:00+32вюв71122100 0.0 10112606
18:00+31в8122772 0.0 10101005
21:00+27в9172712 0.0 1011777